Location: Ottawa
(45.4167°N, 75.7000°W)
Time: 22:22:38
(UTC-04:00)

Tiangong 2 - Pass Details

Date: 08 October 2017
Orbit: 388 x 391 km, 42.8° (Epoch: 22 October)

Event Time Altitude Azimuth Distance (km) Brightness Sun altitude
Exits shadow 05:50:48 - 196° (SSW) 1,606 4.0 -14.7°
Reaches altitude 10° 05:51:31 10° 186° (S) 1,416 3.8 -14.6°
Maximum altitude 05:53:23 15° 151° (SSE) 1,178 3.8 -14.3°
Drops below altitude 10° 05:55:14 10° 115° (ESE) 1,421 4.9 -13.9°
Sets 05:57:58 0° 90° (E) 2,281 7.0 -13.5°
